Helicity
115 108 116 110 105 104 92 88 90 35 29 9 9 15 32 41 45 59 63 86 110 107 108 92 78 76 69
111 116 113 101 103 95 101 107 105 78 12 11 12 15 41 27 30 38 51 71 93 99 91 78 65 52 34
98 110 115 102 94 101 102 106 124 49 35 -5 5 22 18 21 33 41 47 58 79 90 84 76 68 72 73
97 100 98 87 103 88 88 97 113 110 55 20 38 41 32 43 32 45 41 50 73 73 53 56 52 37 44
105 101 101 98 91 86 101 101 93 37 48 132 147 163 169 110 103 66 48 53 51 50 46 44 25 12 6
103 109 112 108 100 84 86 74 35 69 106 176 150 179 171 184 90 60 45 51 42 40 37 16 2 -7 -16
98 108 110 94 90 87 95 118 162 158 130 231 146 186 175 178 111 51 29 47 44 39 33 -5 -36 -33 -31
101 96 99 86 89 101 105 139 184 167 128 263 155 181 192 234 114 33 57 72 43 37 -19 -18 -1 -59 -54
89 78 71 60 62 109 115 124 156 165 136 165 197 201 246 248 211 121 101 87 56 4 -34 -9 44 37 67
128 116 99 98 67 118 137 161 161 143 123 190 207 202 262 296 289 274 275 209 35 36 -2 37 41 61 -8
104 102 102 107 116 123 133 148 167 201 169 148 238 263 323 379 358 346 326 196 30 50 54 61 47 22 17
95 87 78 87 108 131 138 150 155 153 182 197 297 297 325 369 377 352 338 197 282 44 75 76 98 100 33
78 78 80 110 122 125 107 95 114 143 196 181 256 297 328 357 390 368 117 182 109 83 166 171 220 212 138
73 87 93 98 107 113 103 95 106 174 174 167 211 224 303 346 316 208 323 168 141 168 122 126 229 229 192
83 83 81 96 108 102 97 106 117 175 220 236 242 214 260 275 251 312 353 197 147 131 93 130 223 245 230
90 91 97 97 80 94 100 114 144 194 226 267 252 211 198 237 224 300 332 203 166 142 280 246 262 234 221
87 93 93 93 75 100 114 126 183 202 232 264 246 200 185 11 138 307 69 180 213 326 278 276 268 233 181
Wind_Speed
53 64 71 77 79 74 75 77 73 75 81 84 87 91 93 94 95 95 96 96 97 97 95 96 92 82 76
62 68 74 77 77 79 78 75 74 75 80 86 89 93 95 95 97 96 98 97 97 93 94 92 84 78 73
68 70 75 78 80 79 80 79 75 78 83 85 90 93 94 93 95 98 98 97 93 88 86 84 79 79 84
70 75 77 79 80 89 91 85 87 84 85 88 92 94 92 93 95 96 97 94 88 87 84 82 77 67 68
71 76 81 83 89 89 91 95 93 84 91 97 100 95 93 92 94 97 96 97 91 89 84 77 63 56 54
69 76 80 83 86 90 93 102 103 84 119 109 99 101 98 95 99 104 103 97 93 88 84 73 58 58 60
69 74 79 83 86 89 89 93 96 102 110 117 106 108 103 101 106 109 105 97 92 86 94 117 79 70 69
64 70 74 78 78 81 89 91 90 92 94 110 113 114 113 107 108 106 98 94 90 104 122 118 113 79 85
66 71 74 77 78 84 90 98 107 103 96 97 106 122 116 114 101 102 99 90 97 119 118 121 116 72 78
69 72 72 72 75 76 83 96 102 111 90 108 113 113 121 108 105 103 91 79 101 108 118 120 102 56 45
70 72 73 73 74 75 76 82 91 94 96 103 108 108 101 117 109 100 88 75 106 112 117 112 78 65 40
70 74 75 76 77 77 78 78 76 83 91 91 95 101 108 115 116 100 73 88 72 105 100 72 66 52 53
73 75 74 76 77 80 82 83 81 82 84 85 88 94 95 104 105 83 95 82 74 108 105 105 68 71 72
71 72 75 79 84 86 88 92 96 97 86 87 88 91 100 93 86 81 74 83 98 98 109 109 92 80 80
72 77 80 79 81 86 87 92 98 107 110 102 93 90 89 83 74 79 77 79 101 105 109 115 85 76 64
72 76 78 80 82 84 85 91 100 107 108 106 110 112 104 74 68 89 77 87 100 113 102 89 83 79 67
73 72 76 78 85 86 88 96 103 105 103 106 104 107 103 104 99 84 122 92 72 102 94 83 70 56 48
Wind_Direction
332 332 332 332 333 335 336 335 336 335 333 332 331 330 328 327 326 324 322 321 319 317 315 313 311 308 305
328 330 330 332 332 332 334 335 334 334 333 332 331 330 329 328 327 325 323 321 320 318 316 313 310 307 303
325 329 330 332 332 333 334 334 334 333 332 332 331 330 329 329 328 326 325 323 321 320 317 314 311 308 305
324 327 330 332 332 332 332 334 333 333 332 331 331 330 329 329 329 326 325 324 322 320 316 314 311 305 302
324 327 328 331 331 332 331 331 331 333 333 333 332 332 331 330 329 328 326 324 321 319 316 313 306 293 280
325 325 327 330 331 331 331 331 331 336 330 331 333 331 331 331 329 327 325 324 321 318 315 312 289 279 269
323 325 327 329 331 330 331 330 329 330 331 328 333 330 331 330 329 327 326 325 322 320 317 294 273 271 266
324 326 328 330 331 331 330 329 329 331 334 327 331 329 331 330 329 329 328 326 324 318 296 295 296 270 266
326 327 329 331 332 332 332 331 330 331 334 329 331 329 330 330 333 331 329 326 324 301 295 296 303 307 305
327 330 333 334 334 335 334 331 331 332 339 332 331 333 331 331 333 332 332 329 291 291 295 301 311 308 272
328 331 333 335 336 336 336 333 331 329 331 332 330 331 330 329 332 332 331 299 295 295 297 296 271 266 282
330 331 333 336 336 336 335 333 331 328 330 331 328 330 329 328 328 330 323 293 326 292 292 274 269 271 269
330 332 336 336 337 337 336 335 334 333 333 332 330 329 328 327 325 322 297 299 296 301 292 294 318 315 312
332 336 337 337 338 339 338 338 337 337 338 337 335 333 331 329 327 300 318 295 293 288 292 294 314 314 309
335 337 337 341 341 341 341 340 339 339 339 340 339 336 333 330 324 327 322 297 292 291 292 302 318 314 310
337 338 341 343 343 343 343 342 340 340 340 341 340 339 339 337 338 333 327 294 291 294 319 319 318 315 310
337 341 343 344 344 344 344 343 341 341 342 342 343 343 341 306 306 342 306 296 298 324 323 320 319 319 320